User: anonymous   Login
Location: Newark
(13.5236°S, 71.9791°W)
Time: 22:50:24
(UTC+00:00)
Language:

M-CUBED/EXP-1 PRIME - Orbit

View from above orbital plane
View from above orbital plane
View from above satellite
View from above satellite

Ground track
Ground track

The orbit data is extracted from the following two-line orbital elements,

1 37855U 11061F   19265.43378004  .00000248  00000-0  20565-4 0  9995
2 37855 101.7123 210.1765 0173070 152.8904 208.1477 15.05585640431189
Epoch (UTC): 22 September 2019 10:24:38
Eccentricity: 0.0173070
inclination: 101.7123°
perigee height: 430 km
apogee height: 669 km
right ascension of ascending node: 210.1765°
argument of perigee: 152.8904°
revolutions per day: 15.05585640
mean anomaly at epoch: 208.1477°
orbit number at epoch: 43118

The dashed part of the orbit path shows where the satellite is in the earth's shadow,  

DLR